Tracking 33208 objects as of 15-Feb-2026
HD Live streaming from Space Station
objects crossing your sky now

STARLINK-5643

Track STARLINK-5643 now!
10-day predictions
STARLINK-5643 is classified as:


NORAD ID: 55431
Int'l Code: 2023-014AS
Perigee: 577.1 km
Apogee: 581.4 km
Inclination: 70.0 °
Period: 96.1 minutes
Semi major axis: 6950 km
RCS: Unknown
Launch date: January 31, 2023
Source: United States (US)
Launch site: AIR FORCE WESTERN TEST RANGE (AFWTR)
Your satellite tracking list
Your tracking list is empty




NASA's NSSDC Master Catalog

Two Line Element Set (TLE):
1 55431U 23014AS  26046.29479147  .00002413  00000-0  21002-3 0  9997
2 55431  70.0002 141.0864 0003092 270.0273  90.0532 14.98322102168206
Source of the keplerian elements: AFSPC